Showing default

GNOMES-5, 60574

Orbit data source: Space-Track

GNOMES-5, 60574 is a payload satellite owned by PlanetiQ (US) in SSO that was launched on Fri, 16 Aug 2024 UTC via an FALCON 9 launch vehicle from the Air Force Western Test Range (AFWTR). Payload-class satellites include a variety of spacecraft equipped with specific instruments for various scientific and technological missions. These include communications satellites like Starlink; space stations such as the ISS; scientific satellites like the Hubble; Earth observation satellites from companies like Planet Labs, Umbra, and HawkEye 360; GPS; miniature CubeSats for education and research; and military/defense satellites.

Loading next visibility...
Identifier
60574, 2024-149DL
Orbit
SSO
Country
Flag of USUS
Related business
Manufacturer
Blue Canyon
Mission
Operational Commercial Communications
Bus & Motor
XSAT, Unknown motor
Mass
~41 kg wet, ~41 kg dry
Launch date (UTC)
2024-08-16 (2 years ago)
Launch vehicle
FALCON 9
Launch site
Air Force Western Test Range (AFWTR)
Object type
Payload
Rocket body
Debris
Shape & HBR
Box + 2 Pan, 0.3 m
Radar Cross Section
0.162 m², Medium (>0.1 m² and < 1m²)

Expand to show TLE details & history
Last TLE update: 1 day ago

TLE from 1 day ago
0 GNOMES-5
1 60574U 24149DL  26170.76501404  .00003784  00000-0  29921-3 0  9993
2 60574  97.7096 248.8287 0008373 112.1920 248.0193 15.01224765100548
Epoch: 2026-06-19T18:21Z
TLE epoch observation values (Epoch: 2026-06-19T18:21:37.213Z)
Latitude
-0.00002°
Longitude
65.43435°
Altitude
568.355 km
Speed
7.576 km/s
True Right ascension
16h 35m 18s
True Declination
0° 00' 00"
Sunlit
Object was in full shadow at epoch
Visualization orbit readout
Latitude
Unknown
Longitude
Unknown
Altitude
Unknown
Speed
Unknown
Apparent Right ascension
Unknown
Apparent Declination
Unknown
Sunlit
N/A
Visualization observer readout
Local Sidereal Time
07:20:53
Azimuth
Unknown
Elevation
Unknown
Doppler factor
Unknown
Orbital elements
Apogee altitude
565.932 km
Perigee altitude
554.313 km
Semi-major axis
6,938.26 km
Eccentricity
0.00084
Inclination
97.7096°
RAAN
248.8287°
Arg. of periapsis
112.192°
True anomaly
247.93036°
Mean anomaly
248.0193°
Eccentric anomaly
247.97483°
Mean motion
3.7555 °/min
Orbital period
95.86 mins
BSTAR
0.00029921
Loading maneuver chart data...
Computing Atmospheric mass density...
Loading historical data...
Loading historical data...
Loading historical data...
Loading historical data...
Loading historical data...
Loading historical data...
Loading historical data...

Documentation

Showing up to 5 results
|